Location: Lombard
(41.8800°N, 88.0080°W)
Time: 00:46:08
(UTC-05:00)

Gurwin Techsat 1B - Pass Details

Date: 24 May 2022
Orbit: 811 x 814 km, 98.8° (Epoch: 27 June)

Event Time Altitude Azimuth Distance (km) Brightness Sun altitude
Rises 03:17:34 0° 15° (NNE) 3,344 13.1 -18.5°
Reaches altitude 10° 03:19:56 10° 17° (NNE) 2,407 12.2 -18.3°
Maximum altitude 03:25:16 74° 103° (ESE) 845 8.7 -17.7°
Enters shadow 03:28:38 23° 185° (S) 1,662 9.8 -17.3°
